CW1509 Weather Reports


Display with metric or nautical units.
time (UTC)temp
F
wind
direction
speed
MPH
gust
MPH
rain 1hr
in
rain 24hr
in
rain mn
in
humidity
%
barometer
mb
20260901011945 82 159 3.0 5.0 0.00 0.00 0.00 74 1014.2
20260901011424 82 236 3.0 6.0 0.00 0.00 0.00 74 1014.2
20260901010923 82 202 4.0 6.0 0.00 0.00 0.00 73 1014.2
20260901010422 82 250 3.0 6.0 0.00 0.00 0.00 74 1014.1
20260901005940 82 201 4.0 6.0 0.00 0.00 0.00 74 1014.0
20260901005419 82 251 3.0 8.0 0.00 0.00 0.00 74 1014.0
20260901004918 82 228 3.0 8.0 0.00 0.00 0.00 74 1013.8
20260901004418 81 188 2.0 8.0 0.00 0.00 0.00 74 1013.7
20260901003945 81 242 2.0 9.0 0.00 0.00 0.00 75 1013.6
20260901003440 81 230 4.0 9.0 0.00 0.00 0.00 76 1013.5
20260901002919 81 221 3.0 5.0 0.00 0.00 0.00 76 1013.6
20260901002418 81 211 4.0 5.0 0.00 0.00 0.00 77 1013.5
20260901001917 81 223 3.0 10.0 0.00 0.00 0.00 77 1013.5
20260901001416 81 190 4.0 10.0 0.00 0.00 0.00 77 1013.5
20260901000917 81 235 3.0 7.0 0.00 0.00 0.00 78 1013.5
20260901000416 80 246 4.0 8.0 0.00 0.00 0.00 78 1013.6
20260831235934 80 229 4.0 8.0 0.00 0.00 0.00 79 1013.5
20260831235453 80 238 3.0 8.0 0.00 0.00 0.00 80 1013.5
20260831234929 80 242 4.0 7.0 0.00 0.00 0.00 81 1013.6
20260831234449 79 170 2.0 6.0 0.00 0.00 0.00 81 1013.5
20260831233928 79 248 3.0 5.0 0.00 0.00 0.00 82 1013.5
20260831233428 79 182 2.0 5.0 0.00 0.00 0.00 82 1013.4
20260831232927 79 192 3.0 5.0 0.00 0.00 0.00 83 1013.5
20260831232427 79 248 2.0 6.0 0.00 0.00 0.00 83 1013.6
20260831231927 79 205 3.0 7.0 0.00 0.00 0.00 83 1013.5
20260831231425 79 179 3.0 7.0 0.00 0.00 0.00 83 1013.5
20260831230924 79 243 4.0 8.0 0.00 0.00 0.00 83 1013.7
20260831230423 79 164 3.0 9.0 0.00 0.01 0.00 83 1013.4
20260831225923 79 222 3.0 9.0 0.00 0.01 0.00 83 1013.4
20260831225422 80 245 2.0 7.0 0.00 0.01 0.00 82 1013.1
20260831224940 80 173 2.0 6.0 0.00 0.01 0.00 82 1013.2
20260831224418 80 181 2.0 5.0 0.00 0.01 0.00 81 1013.4
20260831223917 81 211 2.0 8.0 0.00 0.01 0.00 80 1013.5
20260831223438 81 201 4.0 8.0 0.00 0.01 0.00 79 1013.5
20260831222958 82 181 3.0 7.0 0.00 0.01 0.00 77 1013.8
20260831222453 82 246 3.0 5.0 0.00 0.01 0.00 76 1014.6
20260831221931 82 236 2.0 4.0 0.00 0.01 0.00 76 1014.8
20260831221431 83 244 3.0 4.0 0.00 0.01 0.00 76 1015.4
20260831220932 83 233 2.0 3.0 0.00 0.01 0.00 75 1015.6
20260831220431 84 210 0.0 0.0 0.00 0.01 0.00 74 1015.7
20260831215930 84 280 0.0 1.0 0.00 0.01 0.00 73 1015.5
20260831215427 84 280 0.0 1.0 0.00 0.01 0.00 73 1015.5
20260831214929 84 181 0.0 3.0 0.00 0.01 0.00 71 1015.1
20260831214445 84 119 1.0 5.0 0.00 0.01 0.00 71 1014.8
20260831213923 84 174 1.0 5.0 0.00 0.01 0.00 70 1014.7
20260831213423 84 213 1.0 7.0 0.00 0.01 0.00 70 1014.4
20260831212923 84 171 3.0 7.0 0.00 0.01 0.00 70 1014.1
20260831212419 84 180 2.0 6.0 0.00 0.01 0.00 70 1013.8
20260831211919 85 215 1.0 7.0 0.00 0.01 0.00 70 1014.0
20260831211419 85 198 3.0 7.0 0.00 0.01 0.00 69 1014.0
20260831210939 85 180 3.0 7.0 0.00 0.01 0.00 69 1013.8
20260831210457 85 263 3.0 6.0 0.00 0.01 0.00 69 1013.8
20260831205431 85 234 3.0 9.0 0.00 0.01 0.00 68 1013.8
20260831204929 85 173 3.0 10.0 0.00 0.01 0.00 68 1014.0
20260831204429 85 126 3.0 10.0 0.00 0.01 0.00 67 1014.0
20260831203927 85 257 3.0 8.0 0.00 0.01 0.00 67 1014.2
20260831203425 85 223 4.0 8.0 0.00 0.01 0.00 67 1014.4
20260831203147 85 251 3.0 7.0 0.00 0.01 0.00 67 1014.3
20260831202415 85 159 3.0 7.0 0.00 0.01 0.00 68 1014.3
20260831201915 85 224 2.0 9.0 0.00 0.01 0.00 69 1014.4
20260831201433 85 232 3.0 9.0 0.00 0.01 0.00 69 1014.4
20260831200933 85 236 3.0 8.0 0.00 0.01 0.00 68 1014.4
20260831200539 85 218 3.0 10.0 0.00 0.01 0.00 68 1014.4
20260831195955 85 180 4.0 10.0 0.00 0.01 0.00 68 1014.4
20260831195432 84 244 4.0 8.0 0.00 0.01 0.00 68 1014.4
20260831195252 84 186 2.0 8.0 0.00 0.01 0.00 69 1014.5
20260831193419 83 210 3.0 8.0 0.00 0.01 0.00 68 1014.7
20260831192941 83 198 2.0 8.0 0.00 0.01 0.00 70 1014.7
20260831192420 83 209 3.0 8.0 0.00 0.01 0.00 70 1015.0
20260831191920 83 181 1.0 7.0 0.00 0.01 0.00 70 1015.1
20260831191419 82 151 3.0 8.0 0.00 0.01 0.00 70 1015.3
20260831190919 82 182 4.0 8.0 0.00 0.01 0.00 70 1015.4
20260831190419 81 178 2.0 5.0 0.00 0.01 0.00 73 1015.5
20260831185917 81 220 2.0 5.0 0.00 0.01 0.00 74 1015.5
20260831185416 80 150 1.0 4.0 0.00 0.01 0.00 73 1015.6
20260831184915 80 182 1.0 9.0 0.00 0.01 0.00 75 1015.7
20260831184434 80 223 3.0 9.0 0.00 0.01 0.00 76 1015.8
20260831183933 79 192 3.0 8.0 0.00 0.01 0.00 77 1015.6
20260831183432 79 174 3.0 8.0 0.00 0.01 0.00 77 1015.7
20260831182930 78 187 4.0 7.0 0.00 0.01 0.00 78 1015.8
20260831182431 78 227 2.0 7.0 0.00 0.01 0.00 78 1015.9
20260831181950 77 186 1.0 8.0 0.00 0.01 0.00 80 1016.0
20260831181427 77 201 1.0 6.0 0.00 0.01 0.00 81 1016.0
20260831180927 76 202 2.0 5.0 0.00 0.01 0.00 81 1015.9
20260831180425 76 201 3.0 5.0 0.00 0.01 0.00 82 1016.0
20260831175944 75 178 1.0 5.0 0.00 0.01 0.00 83 1016.1
20260831175443 75 204 3.0 5.0 0.00 0.01 0.00 84 1016.1
20260831174920 75 109 1.0 5.0 0.00 0.01 0.00 84 1016.1
20260831174418 74 226 1.0 5.0 0.00 0.01 0.00 85 1016.3
20260831173919 74 186 3.0 5.0 0.00 0.01 0.00 84 1016.4
20260831173418 74 177 0.0 5.0 0.00 0.01 0.00 85 1016.5
20260831172918 74 189 1.0 5.0 0.00 0.01 0.00 85 1016.7
20260831172418 73 197 2.0 9.0 0.00 0.01 0.00 85 1016.7
20260831171918 73 209 1.0 9.0 0.00 0.01 0.00 86 1016.8
20260831171418 73 201 1.0 4.0 0.00 0.01 0.00 87 1016.8
20260831170917 73 187 1.0 5.0 0.00 0.01 0.00 87 1016.9
20260831170415 73 188 1.0 6.0 0.00 0.01 0.00 88 1017.0
20260831165916 73 201 3.0 6.0 0.00 0.01 0.00 89 1016.8
20260831165416 72 191 1.0 8.0 0.00 0.01 0.00 89 1016.9
20260831164916 72 180 2.0 8.0 0.00 0.01 0.00 89 1017.1
20260831164415 72 197 1.0 4.0 0.00 0.01 0.00 89 1017.3
20260831163915 72 260 2.0 3.0 0.00 0.01 0.00 89 1017.7
20260831163432 72 232 1.0 3.0 0.00 0.01 0.00 89 1017.6
20260831162929 72 248 1.0 4.0 0.00 0.01 0.00 89 1017.3
20260831162448 72 227 1.0 5.0 0.00 0.01 0.00 90 1017.3
20260831161927 71 188 1.0 4.0 0.00 0.01 0.00 90 1017.2
20260831161426 71 240 1.0 4.0 0.00 0.01 0.00 90 1017.2
20260831160927 71 242 0.0 4.0 0.00 0.01 0.00 90 1016.9
20260831160427 71 168 0.0 3.0 0.00 0.02 0.00 90 1016.8
20260831155926 71 220 2.0 3.0 0.00 0.02 0.00 89 1016.9
20260831155426 71 173 1.0 3.0 0.00 0.02 0.00 89 1016.8
20260831154946 71 217 0.0 3.0 0.00 0.02 0.00 89 1016.9
20260831154424 71 261 1.0 3.0 0.00 0.02 0.00 89 1017.1
20260831153923 71 230 1.0 2.0 0.00 0.02 0.00 89 1017.1
20260831153423 71 219 0.0 3.0 0.00 0.02 0.00 89 1017.0
20260831152923 71 171 2.0 4.0 0.00 0.02 0.00 89 1016.8
20260831152424 71 194 0.0 2.0 0.00 0.02 0.00 89 1017.2
20260831151924 71 184 0.0 0.0 0.00 0.02 0.00 89 1017.5
20260831151424 71 184 0.0 0.0 0.00 0.02 0.00 89 1017.7
20260831150924 71 184 0.0 0.0 0.00 0.02 0.00 89 1017.8
20260831150442 71 184 0.0 0.0 0.00 0.07 0.00 89 1017.9
20260831145922 71 184 0.0 0.0 0.00 0.07 0.00 88 1017.6
20260831145423 71 184 0.0 3.0 0.00 0.07 0.00 88 1017.5
20260831144923 71 184 0.0 3.0 0.00 0.07 0.00 88 1017.5
20260831144423 71 234 0.0 0.0 0.00 0.07 0.00 88 1017.3
20260831143922 71 234 0.0 2.0 0.00 0.07 0.00 88 1017.5
20260831143422 71 234 0.0 2.0 0.00 0.07 0.00 87 1017.5
20260831142922 71 252 1.0 2.0 0.00 0.07 0.00 88 1017.7
20260831142440 71 225 0.0 0.0 0.00 0.07 0.00 88 1017.5
20260831141934 71 169 0.0 0.0 0.00 0.07 0.00 87 1017.1
20260831141434 71 200 0.0 0.0 0.00 0.07 0.00 87 1017.2
20260831140934 71 200 0.0 1.0 0.00 0.07 0.00 87 1017.1
20260831140432 71 200 0.0 2.0 0.00 0.09 0.00 87 1017.2
20260831135932 71 223 0.0 0.0 0.00 0.09 0.00 87 1017.5
20260831135434 71 215 0.0 0.0 0.00 0.09 0.00 87 1017.6
20260831134937 71 254 0.0 0.0 0.00 0.09 0.00 87 1017.5
20260831134434 72 254 0.0 0.0 0.00 0.09 0.00 87 1017.4
20260831133925 71 175 0.0 0.0 0.00 0.09 0.00 86 1017.2
20260831133425 72 175 0.0 0.0 0.00 0.09 0.00 86 1017.2
20260831132924 72 175 0.0 0.0 0.00 0.09 0.00 87 1017.2
20260831132426 72 175 0.0 0.0 0.00 0.09 0.00 87 1017.0
20260831131925 72 175 0.0 0.0 0.00 0.09 0.00 87 1017.2
20260831131445 72 175 0.0 0.0 0.00 0.09 0.00 87 1017.2
20260831130924 72 175 0.0 0.0 0.00 0.09 0.00 86 1017.2
20260831130423 72 175 0.0 0.0 0.00 0.09 0.00 86 1017.1
20260831125923 72 175 0.0 0.0 0.00 0.09 0.00 86 1017.1
20260831125422 72 175 0.0 0.0 0.00 0.09 0.00 86 1017.0
20260831124922 72 175 0.0 0.0 0.00 0.09 0.00 86 1016.9
20260831124423 72 175 0.0 0.0 0.00 0.09 0.00 86 1016.8
20260831123942 72 175 0.0 0.0 0.00 0.09 0.00 86 1016.9
20260831123421 72 175 0.0 0.0 0.00 0.09 0.00 86 1016.9
20260831122923 72 175 0.0 0.0 0.00 0.09 0.00 86 1017.0
20260831122422 71 175 0.0 0.0 0.00 0.09 0.00 86 1016.9
20260831121920 71 175 0.0 2.0 0.00 0.09 0.00 87 1016.7
20260831121419 71 175 0.0 2.0 0.00 0.09 0.00 87 1016.6
20260831120940 71 175 0.0 0.0 0.00 0.09 0.00 87 1016.5
20260831120438 71 175 0.0 0.0 0.00 0.09 0.00 88 1016.4
20260831115937 71 175 0.0 0.0 0.00 0.09 0.00 88 1016.3
20260831115436 71 175 0.0 0.0 0.00 0.09 0.00 88 1016.2
20260831114917 71 175 0.0 0.0 0.00 0.09 0.00 88 1016.1
20260831114418 71 175 0.0 0.0 0.00 0.09 0.00 88 1016.1
20260831113936 71 180 0.0 0.0 0.00 0.09 0.00 89 1015.9
20260831113415 70 180 0.0 1.0 0.00 0.09 0.00 89 1015.9
20260831112934 70 180 0.0 4.0 0.00 0.09 0.00 89 1015.8
20260831112432 70 205 1.0 4.0 0.00 0.09 0.00 89 1015.8
20260831111930 70 175 0.0 0.0 0.00 0.09 0.00 90 1015.8
20260831111430 70 188 0.0 0.0 0.00 0.09 0.00 90 1015.8
20260831110928 70 188 0.0 0.0 0.00 0.09 0.00 90 1015.8
20260831110428 70 178 0.0 0.0 0.00 0.09 0.00 90 1015.8
20260831105926 70 192 0.0 0.0 0.00 0.09 0.00 90 1015.8
20260831105445 70 171 0.0 0.0 0.00 0.09 0.00 90 1015.8
20260831104924 70 177 0.0 0.0 0.00 0.09 0.00 91 1015.8
20260831104442 70 176 0.0 0.0 0.00 0.09 0.00 91 1015.8
20260831103916 70 176 0.0 0.0 0.00 0.09 0.00 91 1015.9
20260831103434 70 192 0.0 0.0 0.00 0.09 0.00 91 1015.9
20260831102955 70 192 0.0 0.0 0.00 0.09 0.00 91 1015.9
20260831102415 70 175 0.0 0.0 0.00 0.09 0.00 91 1016.0
20260831101915 70 175 0.0 0.0 0.00 0.09 0.00 91 1016.0
20260831101436 70 181 0.0 0.0 0.00 0.09 0.00 91 1016.0
20260831100917 70 181 0.0 0.0 0.00 0.09 0.00 91 1016.0
20260831100419 70 181 0.0 1.0 0.00 0.14 0.00 91 1016.1
20260831095920 70 181 0.0 1.0 0.00 0.14 0.00 91 1016.1
20260831095422 71 198 0.0 0.0 0.00 0.14 0.00 91 1016.1
20260831094923 71 198 0.0 0.0 0.00 0.14 0.00 91 1016.1
20260831094445 71 198 0.0 0.0 0.00 0.14 0.00 91 1015.9
20260831093926 71 198 0.0 0.0 0.00 0.14 0.00 91 1016.0
20260831093427 71 198 0.0 0.0 0.00 0.14 0.00 91 1016.1
20260831092928 71 198 0.0 0.0 0.00 0.14 0.00 91 1016.1
20260831092429 71 198 0.0 0.0 0.00 0.14 0.00 91 1016.0
20260831091930 71 198 0.0 0.0 0.00 0.14 0.00 90 1016.1
20260831091430 71 198 0.0 0.0 0.00 0.14 0.00 90 1016.2
20260831090932 71 198 0.0 0.0 0.00 0.14 0.00 90 1016.2
20260831090453 71 198 0.0 0.0 0.00 0.15 0.00 90 1016.2
20260831085931 71 198 0.0 0.0 0.00 0.15 0.00 90 1016.2
20260831085432 71 198 0.0 0.0 0.00 0.15 0.00 90 1016.1
20260831084931 71 198 0.0 0.0 0.00 0.15 0.00 90 1016.2
20260831084451 71 198 0.0 0.0 0.00 0.15 0.00 90 1016.2
20260831083929 71 198 0.0 0.0 0.00 0.15 0.00 90 1016.2
20260831083430 71 198 0.0 0.0 0.00 0.15 0.00 90 1016.1
20260831082930 71 198 0.0 0.0 0.00 0.15 0.00 90 1016.0
20260831082429 71 198 0.0 1.0 0.00 0.15 0.00 90 1015.9
20260831081950 71 198 0.0 1.0 0.00 0.15 0.00 90 1016.0
20260831081451 71 198 0.0 3.0 0.00 0.15 0.00 90 1015.9
20260831080932 71 184 0.0 0.0 0.00 0.15 0.00 90 1016.1
20260831080433 72 184 0.0 0.0 0.00 0.15 0.00 90 1016.0
20260831075915 72 184 0.0 1.0 0.00 0.15 0.00 89 1016.1
20260831075437 72 184 0.0 1.0 0.00 0.15 0.00 89 1016.1
20260831074917 72 184 0.0 0.0 0.00 0.15 0.00 89 1016.2
20260831074418 72 184 0.0 0.0 0.00 0.15 0.00 89 1016.3
20260831073938 72 184 0.0 0.0 0.00 0.15 0.00 89 1016.4
20260831073419 72 184 0.0 0.0 0.00 0.15 0.00 89 1016.4
20260831072921 72 184 0.0 0.0 0.00 0.15 0.00 89 1016.4
20260831072421 72 184 0.0 0.0 0.00 0.15 0.00 90 1016.3
20260831071924 72 184 0.0 0.0 0.00 0.15 0.00 90 1016.3
20260831071425 72 184 0.0 0.0 0.00 0.15 0.00 90 1016.3
20260831070925 72 185 0.0 2.0 0.00 0.15 0.00 90 1016.2
20260831070445 72 184 0.0 2.0 0.00 0.15 0.00 90 1016.1
20260831065926 72 184 0.0 0.0 0.00 0.15 0.00 90 1016.0
20260831065427 72 185 0.0 2.0 0.00 0.15 0.00 90 1015.9
20260831064947 72 185 0.0 2.0 0.00 0.15 0.00 90 1015.9
20260831064427 72 194 0.0 2.0 0.00 0.15 0.00 90 1016.0
20260831063948 72 179 0.0 4.0 0.00 0.15 0.00 90 1016.1
20260831063428 72 181 1.0 4.0 0.00 0.15 0.00 90 1016.3
20260831062928 72 184 0.0 2.0 0.00 0.15 0.00 90 1016.2
20260831062430 72 129 0.0 1.0 0.00 0.15 0.00 90 1016.3
20260831061932 72 187 0.0 2.0 0.00 0.15 0.00 90 1016.3
20260831061450 72 198 0.0 1.0 0.00 0.15 0.00 90 1016.4
20260831060930 72 253 0.0 0.0 0.00 0.15 0.00 90 1016.4
20260831060429 72 253 0.0 0.0 0.00 0.15 0.00 90 1016.3
20260831055930 72 253 0.0 0.0 0.00 0.15 0.00 90 1016.2
20260831055414 72 253 0.0 0.0 0.00 0.15 0.00 90 1016.4
20260831054931 72 253 0.0 0.0 0.00 0.15 0.00 90 1016.4
20260831054451 72 253 0.0 0.0 0.00 0.15 0.00 90 1016.6
20260831053950 72 253 0.0 0.0 0.00 0.15 0.00 89 1016.6
20260831053429 72 253 0.0 0.0 0.00 0.15 0.00 89 1016.6
20260831052931 72 253 0.0 0.0 0.00 0.15 0.00 89 1016.6
20260831052431 73 253 0.0 0.0 0.00 0.15 0.00 89 1016.7
20260831051951 73 253 0.0 0.0 0.00 0.15 0.00 89 1016.7
20260831051430 73 253 0.0 0.0 0.00 0.15 0.00 89 1016.7
20260831050931 73 253 0.0 1.0 0.00 0.15 0.00 89 1016.6
20260831050432 73 253 0.0 0.0 0.00 0.15 0.00 89 1016.6
20260831045931 73 253 0.0 0.0 0.00 0.15 0.00 89 1016.5
20260831045430 73 253 0.0 0.0 0.00 0.15 0.00 89 1016.5
20260831044951 73 253 0.0 0.0 0.00 0.15 0.00 89 1016.7
20260831044431 73 253 0.0 0.0 0.00 0.15 0.00 88 1016.7
20260831043933 73 253 0.0 0.0 0.00 0.15 0.00 88 1016.6
20260831043413 73 253 0.0 0.0 0.00 0.15 0.00 88 1016.4
20260831042914 73 253 0.0 0.0 0.00 0.15 0.00 88 1016.5
20260831042433 73 253 0.0 1.0 0.00 0.15 0.00 88 1016.8
20260831041913 73 253 0.0 1.0 0.00 0.15 0.00 88 1016.7
20260831041415 73 253 0.0 1.0 0.00 0.15 0.00 88 1016.6
20260831040917 73 253 0.0 1.0 0.00 0.15 0.00 88 1016.6
20260831040418 73 253 0.0 1.0 0.00 0.15 0.15 88 1016.6
20260831035921 73 253 0.0 0.0 0.00 0.15 0.15 88 1016.6
20260831035421 73 217 0.0 1.0 0.00 0.15 0.15 88 1016.6
20260831034942 73 200 0.0 3.0 0.00 0.15 0.15 88 1016.5
20260831034422 73 184 0.0 5.0 0.00 0.15 0.15 88 1016.4
20260831033921 73 184 2.0 5.0 0.00 0.15 0.15 88 1016.3
20260831033423 73 184 1.0 6.0 0.00 0.15 0.15 88 1016.3
20260831032925 74 165 2.0 6.0 0.00 0.15 0.15 88 1016.2
20260831032426 74 157 2.0 5.0 0.00 0.15 0.15 88 1016.3
20260831031947 74 178 2.0 8.0 0.00 0.15 0.15 88 1016.1
20260831031426 74 209 4.0 8.0 0.00 0.15 0.15 87 1016.6
20260831030951 74 273 2.0 6.0 0.00 0.15 0.15 88 1016.8
20260831030433 74 202 3.0 6.0 0.00 0.15 0.15 86 1016.7
20260831025916 74 219 3.0 5.0 0.00 0.15 0.15 86 1016.7
20260831025418 73 186 2.0 5.0 0.00 0.15 0.15 87 1016.5
20260831024921 73 233 3.0 5.0 0.00 0.15 0.15 88 1016.8
20260831024422 73 252 2.0 4.0 0.00 0.15 0.15 88 1016.9
20260831023952 73 237 2.0 4.0 0.00 0.15 0.15 89 1016.6
20260831023453 73 223 1.0 3.0 0.00 0.15 0.15 89 1016.4
20260831022952 73 244 2.0 3.0 0.00 0.15 0.15 90 1016.5
20260831022431 72 227 1.0 3.0 0.00 0.15 0.15 90 1016.4
20260831021913 72 223 1.0 3.0 0.00 0.15 0.15 90 1016.6
20260831021414 72 238 0.0 3.0 0.00 0.15 0.15 90 1016.4
20260831020915 72 204 1.0 3.0 0.00 0.15 0.15 91 1016.4
20260831020416 72 254 0.0 0.0 0.00 0.15 0.15 91 1016.3
20260831015918 72 207 0.0 0.0 0.00 0.15 0.15 91 1016.3
20260831015420 72 194 0.0 0.0 0.00 0.15 0.15 91 1016.3
20260831014922 72 193 0.0 0.0 0.00 0.15 0.15 91 1016.4
20260831014425 72 193 0.0 0.0 0.00 0.15 0.15 91 1016.5
20260831013956 71 244 0.0 0.0 0.00 0.15 0.15 91 1016.5
20260831013441 71 244 0.0 0.0 0.00 0.15 0.15 91 1016.5
20260831012925 71 244 0.0 0.0 0.00 0.15 0.15 91 1016.4
20260831012428 71 251 0.0 0.0 0.00 0.15 0.15 91 1016.3